AVA562 MSLP-KSFO

Flight info

Callsign AVA562
Flight time N/A
Altitude 36000
Route KAPA2N KAPAN UG436 AUR UA552 GABEN DCT MTT DCT AVALI DCT IREKO DCT CDR UL655 PPE J93 PDZ DCT COREZ DCT MAKRS DCT SERFR SERFR4
Aircraft A20N/M-VGDW/C

Departure

Time 2026-04-26 13:22
Airport El Salvador International Airport Saint Óscar Arnulfo Romero y Galdámez (MSLP)

Arrival

Time N/A
Airport San Francisco International Airport (KSFO)
Time Latitude Longitude Altitude Speed Heading
2026-04-26 12:34 13.44466 -89.05534 98 ft 0 kts 340°
2026-04-26 13:11 13.44454 -89.05530 100 ft 3 kts 340°
2026-04-26 13:11 13.44437 -89.05525 98 ft 3 kts 359°
2026-04-26 13:11 13.44422 -89.05517 97 ft 3 kts 283°
2026-04-26 13:12 13.44421 -89.05507 97 ft 0 kts 249°
2026-04-26 13:16 13.44421 -89.05508 97 ft 2 kts 249°
2026-04-26 13:16 13.44404 -89.05531 98 ft 6 kts 231°
2026-04-26 13:16 13.44368 -89.05582 97 ft 11 kts 246°
2026-04-26 13:17 13.44306 -89.05760 96 ft 15 kts 250°
2026-04-26 13:17 13.44268 -89.05865 96 ft 17 kts 250°
2026-04-26 13:18 13.44132 -89.05994 94 ft 15 kts 250°
2026-04-26 13:18 13.44094 -89.06101 93 ft 17 kts 250°
2026-04-26 13:18 13.44008 -89.06343 104 ft 19 kts 250°
2026-04-26 13:19 13.43962 -89.06471 181 ft 19 kts 250°
2026-04-26 13:19 13.43918 -89.06597 179 ft 19 kts 250°
2026-04-26 13:19 13.43874 -89.06721 177 ft 18 kts 250°
2026-04-26 13:19 13.43831 -89.06843 175 ft 18 kts 250°
2026-04-26 13:20 13.43788 -89.06964 175 ft 18 kts 248°
2026-04-26 13:20 13.43690 -89.06988 172 ft 16 kts 159°
2026-04-26 13:20 13.43612 -89.06953 171 ft 9 kts 137°
2026-04-26 13:20 13.43616 -89.06906 173 ft 10 kts 71°
2026-04-26 13:21 13.43711 -89.06646 179 ft 66 kts 70°
2026-04-26 13:21 13.43846 -89.06267 177 ft 101 kts 70°
2026-04-26 13:21 13.44272 -89.05081 103 ft 163 kts 70°
2026-04-26 13:21 13.44682 -89.03928 429 ft 168 kts 70°
2026-04-26 13:22 13.45068 -89.02801 923 ft 171 kts 70°
2026-04-26 13:22 13.45491 -89.01617 1301 ft 179 kts 69°
2026-04-26 13:22 13.45927 -89.00413 1767 ft 185 kts 69°
2026-04-26 13:22 13.46400 -88.99101 2033 ft 206 kts 69°
2026-04-26 13:23 13.46926 -88.97636 2235 ft 229 kts 69°
2026-04-26 13:23 13.47495 -88.96046 2442 ft 252 kts 69°
2026-04-26 13:23 13.48113 -88.94311 2896 ft 262 kts 69°
2026-04-26 13:23 13.48742 -88.92544 3578 ft 264 kts 69°
2026-04-26 13:24 13.49364 -88.90755 4205 ft 268 kts 71°
2026-04-26 13:24 13.49880 -88.88910 4871 ft 270 kts 76°
2026-04-26 13:24 13.50314 -88.87022 5503 ft 272 kts 77°
2026-04-26 13:24 13.50815 -88.85132 6123 ft 275 kts 70°
2026-04-26 13:25 13.51609 -88.83348 6775 ft 275 kts 59°
2026-04-26 13:25 13.52741 -88.81760 7384 ft 277 kts 47°
2026-04-26 13:25 13.54188 -88.80440 7960 ft 281 kts 35°
2026-04-26 13:25 13.55899 -88.79455 8560 ft 284 kts 23°
2026-04-26 13:26 13.57803 -88.78875 9186 ft 288 kts 10°
2026-04-26 13:26 13.59785 -88.78733 9810 ft 291 kts 358°
2026-04-26 13:26 13.61805 -88.79040 10330 ft 298 kts 346°
2026-04-26 13:26 13.63769 -88.79822 10746 ft 309 kts 333°
2026-04-26 13:27 13.65575 -88.81103 11108 ft 321 kts 319°
2026-04-26 13:27 13.67062 -88.82844 11589 ft 328 kts 305°
2026-04-26 13:27 13.68138 -88.84923 12094 ft 334 kts 295°
2026-04-26 13:27 13.69027 -88.87169 12450 ft 344 kts 292°
2026-04-26 13:28 13.69890 -88.89486 12885 ft 349 kts 292°
2026-04-26 13:28 13.70763 -88.91836 13400 ft 353 kts 292°
2026-04-26 13:28 13.71645 -88.94201 13914 ft 355 kts 292°
2026-04-26 13:28 13.72536 -88.96578 14411 ft 357 kts 293°
2026-04-26 13:29 13.73433 -88.98966 14925 ft 358 kts 293°
2026-04-26 13:29 13.74029 -89.00552 15272 ft 359 kts 293°
2026-04-26 13:29 13.75239 -89.03767 15975 ft 361 kts 293°
2026-04-26 13:29 13.76135 -89.06149 16490 ft 362 kts 293°
2026-04-26 13:30 13.77046 -89.08571 17130 ft 364 kts 294°
2026-04-26 13:30 13.77961 -89.11003 17629 ft 365 kts 294°
2026-04-26 13:30 13.78879 -89.13443 18098 ft 367 kts 294°
2026-04-26 13:30 13.79803 -89.15899 18463 ft 371 kts 294°
2026-04-26 13:31 13.80747 -89.18408 18635 ft 380 kts 294°
2026-04-26 13:31 13.81710 -89.20968 18873 ft 386 kts 294°
2026-04-26 13:31 13.82682 -89.23554 19184 ft 389 kts 293°
2026-04-26 13:31 13.83659 -89.26159 19504 ft 391 kts 294°
2026-04-26 13:32 13.84643 -89.28782 19838 ft 394 kts 294°
2026-04-26 13:32 13.85633 -89.31422 20177 ft 396 kts 293°
2026-04-26 13:32 13.86626 -89.34068 20534 ft 397 kts 293°
2026-04-26 13:32 13.87609 -89.36692 20899 ft 399 kts 293°
2026-04-26 13:33 13.88609 -89.39360 21264 ft 401 kts 293°
2026-04-26 13:33 13.89615 -89.42043 21605 ft 403 kts 293°
2026-04-26 13:33 13.90627 -89.44747 21974 ft 406 kts 293°
2026-04-26 13:33 13.91645 -89.47465 22350 ft 408 kts 293°
2026-04-26 13:34 13.92667 -89.50197 22745 ft 410 kts 293°
2026-04-26 13:34 13.93696 -89.52949 23144 ft 413 kts 293°
2026-04-26 13:34 13.94717 -89.55724 23543 ft 415 kts 292°
2026-04-26 13:34 13.95365 -89.57584 23761 ft 417 kts 291°
2026-04-26 13:35 13.96654 -89.61365 24205 ft 420 kts 291°
2026-04-26 13:35 13.97618 -89.64205 24536 ft 421 kts 291°
2026-04-26 13:35 13.98586 -89.67058 24867 ft 423 kts 291°
2026-04-26 13:35 13.99560 -89.69924 25201 ft 424 kts 291°
2026-04-26 13:36 14.00539 -89.72806 25533 ft 426 kts 291°
2026-04-26 13:36 14.01519 -89.75690 25838 ft 428 kts 291°
2026-04-26 13:36 14.02492 -89.78555 26145 ft 429 kts 291°
2026-04-26 13:36 14.03480 -89.81461 26443 ft 431 kts 290°
2026-04-26 13:37 14.04515 -89.84361 26737 ft 432 kts 294°
2026-04-26 13:37 14.05860 -89.87129 27019 ft 432 kts 302°
2026-04-26 13:37 14.07565 -89.89685 27325 ft 433 kts 307°
2026-04-26 13:37 14.09404 -89.92160 27585 ft 435 kts 309°
2026-04-26 13:38 14.11308 -89.94597 27855 ft 437 kts 310°
2026-04-26 13:38 14.13239 -89.97020 28141 ft 438 kts 310°
2026-04-26 13:38 14.15178 -89.99447 28414 ft 440 kts 310°
2026-04-26 13:38 14.17125 -90.01895 28654 ft 442 kts 310°
2026-04-26 13:39 14.19073 -90.04362 28888 ft 444 kts 309°
2026-04-26 13:39 14.21023 -90.06846 29144 ft 446 kts 309°
2026-04-26 13:39 14.22975 -90.09342 29471 ft 447 kts 309°
2026-04-26 13:39 14.24895 -90.11803 29779 ft 447 kts 309°
2026-04-26 13:40 14.26874 -90.14341 30008 ft 449 kts 309°
2026-04-26 13:40 14.28803 -90.16818 30233 ft 451 kts 309°
2026-04-26 13:40 14.30774 -90.19348 30431 ft 452 kts 309°
2026-04-26 13:40 14.32746 -90.21879 30625 ft 454 kts 309°
2026-04-26 13:41 14.34727 -90.24423 30864 ft 454 kts 309°
2026-04-26 13:41 14.36705 -90.26963 31121 ft 455 kts 309°
2026-04-26 13:41 14.38694 -90.29517 31342 ft 456 kts 309°
2026-04-26 13:41 14.40682 -90.32072 31559 ft 457 kts 309°
2026-04-26 13:42 14.42675 -90.34633 31763 ft 458 kts 309°
2026-04-26 13:42 14.44657 -90.37181 32265 ft 450 kts 309°
2026-04-26 13:42 14.46593 -90.39672 32944 ft 440 kts 309°
2026-04-26 13:42 14.48492 -90.42116 33422 ft 434 kts 309°
2026-04-26 13:43 14.50375 -90.44540 33739 ft 432 kts 309°
2026-04-26 13:43 14.52258 -90.46964 33998 ft 431 kts 309°
2026-04-26 13:43 14.54133 -90.49378 34234 ft 430 kts 309°
2026-04-26 13:43 14.56008 -90.51793 34428 ft 430 kts 309°
2026-04-26 13:44 14.57890 -90.54192 34604 ft 429 kts 310°
2026-04-26 13:44 14.59794 -90.56563 34772 ft 429 kts 310°
2026-04-26 13:44 14.61713 -90.58921 34946 ft 429 kts 311°
2026-04-26 13:44 14.63639 -90.61276 35100 ft 429 kts 311°
2026-04-26 13:45 14.65548 -90.63610 35237 ft 429 kts 311°
2026-04-26 13:45 14.69423 -90.68359 35356 ft 434 kts 310°
2026-04-26 13:45 14.71365 -90.70746 35501 ft 434 kts 310°
2026-04-26 13:46 14.73305 -90.73134 35672 ft 434 kts 310°
2026-04-26 13:46 14.75247 -90.75527 35822 ft 433 kts 310°
2026-04-26 13:46 14.77158 -90.77883 35941 ft 434 kts 310°
2026-04-26 13:46 14.79099 -90.80277 36057 ft 434 kts 310°
2026-04-26 13:47 14.81043 -90.82673 36167 ft 435 kts 310°
2026-04-26 13:47 14.84927 -90.87465 36181 ft 434 kts 310°
2026-04-26 13:48 14.88797 -90.92242 36175 ft 437 kts 310°
2026-04-26 13:48 14.92086 -90.96304 36188 ft 443 kts 310°
2026-04-26 13:49 14.96035 -91.01182 36180 ft 445 kts 310°
2026-04-26 13:49 14.99993 -91.06078 36177 ft 443 kts 310°
2026-04-26 13:50 15.03949 -91.10973 36173 ft 443 kts 310°
2026-04-26 13:50 15.07899 -91.15862 36178 ft 443 kts 310°
2026-04-26 13:51 15.11846 -91.20752 36175 ft 443 kts 310°
2026-04-26 13:51 15.15797 -91.25650 36177 ft 443 kts 310°
2026-04-26 13:52 15.19746 -91.30549 36182 ft 443 kts 310°
2026-04-26 13:52 15.23688 -91.35441 36167 ft 443 kts 310°
2026-04-26 13:53 15.27609 -91.40311 36173 ft 443 kts 310°
2026-04-26 13:53 15.31553 -91.45213 36161 ft 442 kts 310°
2026-04-26 13:54 15.35477 -91.50095 36152 ft 441 kts 310°
2026-04-26 13:54 15.39403 -91.54981 36138 ft 440 kts 310°
2026-04-26 13:55 15.44610 -91.61470 36144 ft 440 kts 310°
2026-04-26 13:56 15.51119 -91.69591 36094 ft 440 kts 310°
2026-04-26 13:56 15.55026 -91.74470 36092 ft 440 kts 310°
2026-04-26 13:57 15.58932 -91.79352 36109 ft 440 kts 310°
2026-04-26 13:57 15.62844 -91.84244 36079 ft 440 kts 310°
2026-04-26 13:58 15.66756 -91.89140 36042 ft 440 kts 310°
2026-04-26 13:58 15.70664 -91.94024 36049 ft 440 kts 311°
2026-04-26 13:59 15.74789 -91.98717 36029 ft 439 kts 314°
2026-04-26 13:59 15.79028 -92.03240 35998 ft 439 kts 314°
2026-04-26 14:00 15.87545 -92.12373 35998 ft 439 kts 314°
2026-04-26 14:01 15.91778 -92.16962 35976 ft 439 kts 314°
2026-04-26 14:01 15.96001 -92.21547 35980 ft 439 kts 314°
2026-04-26 14:02 16.00206 -92.26113 35986 ft 440 kts 314°
2026-04-26 14:02 16.04437 -92.30710 35975 ft 439 kts 314°
2026-04-26 14:03 16.08666 -92.35308 35969 ft 439 kts 314°
2026-04-26 14:03 16.12895 -92.39909 35973 ft 439 kts 314°
2026-04-26 14:04 16.17101 -92.44487 35968 ft 439 kts 314°
2026-04-26 14:04 16.21328 -92.49090 35954 ft 439 kts 314°
2026-04-26 14:05 16.25549 -92.53692 35953 ft 439 kts 314°
2026-04-26 14:05 16.29775 -92.58301 35957 ft 439 kts 314°
2026-04-26 14:06 16.33994 -92.62906 35950 ft 439 kts 314°
2026-04-26 14:06 16.38204 -92.67504 35940 ft 438 kts 314°
2026-04-26 14:07 16.42405 -92.72096 35943 ft 438 kts 314°
2026-04-26 14:07 16.46584 -92.76666 35934 ft 438 kts 314°
2026-04-26 14:08 16.50792 -92.81270 35984 ft 438 kts 314°
2026-04-26 14:08 16.54998 -92.85876 36002 ft 438 kts 314°
2026-04-26 14:09 16.59200 -92.90482 36011 ft 438 kts 314°
2026-04-26 14:09 16.63400 -92.95088 36017 ft 438 kts 314°
2026-04-26 14:10 16.67602 -92.99698 36015 ft 438 kts 314°
2026-04-26 14:10 16.71800 -93.04308 36003 ft 437 kts 314°
2026-04-26 14:11 16.78053 -93.11181 35973 ft 437 kts 314°
2026-04-26 14:11 16.82240 -93.15786 35969 ft 437 kts 314°
2026-04-26 14:12 16.86428 -93.20397 35946 ft 437 kts 314°
2026-04-26 14:12 16.90619 -93.25013 35908 ft 437 kts 314°
2026-04-26 14:13 16.96899 -93.31935 35927 ft 437 kts 314°
2026-04-26 14:14 17.01080 -93.36548 35898 ft 437 kts 314°
2026-04-26 14:14 17.05239 -93.41140 35882 ft 437 kts 314°
2026-04-26 14:15 17.09408 -93.45748 35884 ft 436 kts 314°
2026-04-26 14:15 17.13564 -93.50342 35884 ft 436 kts 314°
2026-04-26 14:16 17.17733 -93.54956 35863 ft 436 kts 314°
2026-04-26 14:16 17.21895 -93.59564 35860 ft 436 kts 314°
2026-04-26 14:17 17.26061 -93.64180 35862 ft 435 kts 314°
2026-04-26 14:17 17.30196 -93.68765 35845 ft 435 kts 313°
2026-04-26 14:18 17.34352 -93.73376 35847 ft 435 kts 314°
2026-04-26 14:18 17.38514 -93.77996 35847 ft 435 kts 314°
2026-04-26 14:19 17.42666 -93.82611 35844 ft 435 kts 314°
2026-04-26 14:19 17.46813 -93.87222 35841 ft 434 kts 314°
2026-04-26 14:20 17.50954 -93.91830 35843 ft 434 kts 314°
2026-04-26 14:20 17.55096 -93.96442 35844 ft 434 kts 314°
2026-04-26 14:21 17.59211 -94.01027 35836 ft 434 kts 313°
2026-04-26 14:21 17.63350 -94.05642 35837 ft 434 kts 313°
2026-04-26 14:22 17.67489 -94.10261 35838 ft 434 kts 313°
2026-04-26 14:22 17.71627 -94.14883 35842 ft 434 kts 313°
2026-04-26 14:23 17.75756 -94.19497 35839 ft 433 kts 313°
2026-04-26 14:23 17.79854 -94.24079 35840 ft 432 kts 313°
2026-04-26 14:24 17.83970 -94.28682 35844 ft 432 kts 313°
2026-04-26 14:24 17.88084 -94.33289 35846 ft 432 kts 313°
2026-04-26 14:25 17.92203 -94.37904 35848 ft 433 kts 313°
2026-04-26 14:25 17.96321 -94.42523 35848 ft 433 kts 313°
2026-04-26 14:26 18.00435 -94.47141 35849 ft 433 kts 313°
2026-04-26 14:26 18.04546 -94.51761 35851 ft 432 kts 313°
2026-04-26 14:27 18.08629 -94.56352 35850 ft 432 kts 313°
2026-04-26 14:27 18.12825 -94.60891 35851 ft 433 kts 315°
2026-04-26 14:28 18.17164 -94.65291 35849 ft 433 kts 316°
2026-04-26 14:28 18.21515 -94.69670 35847 ft 433 kts 316°
2026-04-26 14:29 18.25856 -94.74069 35856 ft 433 kts 316°
2026-04-26 14:29 18.30154 -94.78449 35856 ft 433 kts 316°
2026-04-26 14:30 18.34479 -94.82865 35853 ft 433 kts 316°
2026-04-26 14:30 18.38801 -94.87280 35853 ft 433 kts 316°
2026-04-26 14:31 18.43114 -94.91690 35859 ft 431 kts 316°
2026-04-26 14:31 18.47426 -94.96101 35854 ft 431 kts 316°
2026-04-26 14:32 18.51729 -95.00504 35845 ft 431 kts 316°
2026-04-26 14:32 18.56009 -95.04888 35850 ft 432 kts 316°
2026-04-26 14:33 18.60314 -95.09301 35852 ft 432 kts 316°
2026-04-26 14:33 18.64624 -95.13723 35834 ft 432 kts 316°
2026-04-26 14:34 18.68927 -95.18141 35835 ft 432 kts 316°
2026-04-26 14:34 18.73230 -95.22562 35834 ft 431 kts 316°
2026-04-26 14:35 18.77517 -95.26969 35825 ft 429 kts 316°
2026-04-26 14:35 18.81775 -95.31351 35826 ft 429 kts 316°
2026-04-26 14:36 18.85330 -95.35011 35824 ft 430 kts 315°
2026-04-26 14:36 18.89617 -95.39429 35826 ft 430 kts 315°
2026-04-26 14:37 18.93900 -95.43845 35824 ft 430 kts 315°
2026-04-26 14:37 18.98187 -95.48269 35824 ft 430 kts 315°
2026-04-26 14:38 19.02472 -95.52694 35826 ft 430 kts 315°
2026-04-26 14:38 19.06751 -95.57117 35826 ft 430 kts 315°
2026-04-26 14:39 19.11024 -95.61536 35825 ft 429 kts 315°
2026-04-26 14:39 19.15256 -95.65917 35829 ft 429 kts 315°
2026-04-26 14:40 19.19521 -95.70335 35832 ft 429 kts 315°
2026-04-26 14:40 19.23789 -95.74760 35832 ft 430 kts 315°
2026-04-26 14:41 19.28066 -95.79196 35829 ft 430 kts 315°
2026-04-26 14:41 19.32340 -95.83634 35829 ft 430 kts 315°
2026-04-26 14:42 19.36594 -95.88054 35837 ft 430 kts 315°
2026-04-26 14:42 19.40867 -95.92498 35828 ft 429 kts 315°
2026-04-26 14:43 19.45126 -95.96930 35826 ft 429 kts 315°
2026-04-26 14:43 19.49381 -96.01361 35826 ft 429 kts 315°
2026-04-26 14:44 19.53634 -96.05794 35828 ft 429 kts 315°
2026-04-26 14:44 19.57887 -96.10231 35811 ft 429 kts 315°
2026-04-26 14:45 19.62116 -96.14645 35816 ft 430 kts 315°
2026-04-26 14:45 19.66383 -96.19103 35814 ft 430 kts 315°
2026-04-26 14:46 19.70649 -96.23563 35824 ft 430 kts 315°
2026-04-26 14:46 19.74902 -96.28014 35820 ft 428 kts 315°
2026-04-26 14:47 19.79141 -96.32453 35820 ft 428 kts 315°
2026-04-26 14:47 19.83376 -96.36892 35820 ft 428 kts 314°
2026-04-26 14:48 19.87611 -96.41334 35829 ft 428 kts 314°
2026-04-26 14:48 19.91830 -96.45763 35829 ft 428 kts 314°
2026-04-26 14:49 19.96067 -96.50214 35826 ft 428 kts 314°
2026-04-26 14:49 20.00303 -96.54667 35831 ft 429 kts 314°
2026-04-26 14:50 20.04542 -96.59128 35832 ft 428 kts 314°
2026-04-26 14:50 20.08764 -96.63574 35824 ft 426 kts 314°
2026-04-26 14:51 20.12953 -96.67990 35827 ft 426 kts 314°
2026-04-26 14:51 20.17171 -96.72438 35827 ft 426 kts 314°
2026-04-26 14:52 20.21330 -96.76948 35822 ft 426 kts 313°
2026-04-26 14:52 20.25371 -96.81577 35824 ft 426 kts 312°
2026-04-26 14:53 20.29390 -96.86222 35825 ft 426 kts 312°
2026-04-26 14:53 20.33419 -96.90860 35827 ft 427 kts 312°
2026-04-26 14:54 20.37430 -96.95464 35824 ft 425 kts 312°
2026-04-26 14:54 20.41455 -97.00084 35824 ft 425 kts 312°
2026-04-26 14:55 20.45476 -97.04704 35825 ft 425 kts 312°
2026-04-26 14:55 20.49497 -97.09329 35823 ft 425 kts 312°
2026-04-26 14:56 20.53492 -97.13930 35832 ft 425 kts 312°
2026-04-26 14:56 20.57509 -97.18559 35839 ft 425 kts 312°
2026-04-26 14:57 20.61533 -97.23199 35845 ft 425 kts 312°
2026-04-26 14:57 20.65551 -97.27835 35862 ft 425 kts 312°
2026-04-26 14:58 20.69536 -97.32437 35852 ft 423 kts 311°
2026-04-26 14:58 20.73532 -97.37055 35853 ft 422 kts 311°
2026-04-26 14:59 20.77515 -97.41664 35851 ft 422 kts 311°
2026-04-26 14:59 20.81502 -97.46280 35847 ft 422 kts 311°
2026-04-26 15:00 20.85492 -97.50903 35831 ft 422 kts 312°
2026-04-26 15:00 20.89476 -97.55524 35832 ft 422 kts 311°
2026-04-26 15:01 20.93436 -97.60120 35829 ft 422 kts 311°
2026-04-26 15:01 20.97421 -97.64749 35843 ft 423 kts 311°
2026-04-26 15:02 21.01405 -97.69381 35832 ft 421 kts 311°
2026-04-26 15:02 21.05378 -97.74004 35832 ft 423 kts 311°
2026-04-26 15:03 21.09357 -97.78639 35836 ft 427 kts 311°
2026-04-26 15:03 21.13380 -97.83328 35835 ft 427 kts 311°
2026-04-26 15:04 21.17399 -97.88016 35835 ft 427 kts 311°
2026-04-26 15:04 21.21418 -97.92708 35837 ft 427 kts 311°
2026-04-26 15:05 21.25432 -97.97399 35830 ft 427 kts 311°
2026-04-26 15:05 21.29442 -98.02091 35834 ft 427 kts 311°
2026-04-26 15:06 21.33454 -98.06788 35832 ft 427 kts 311°
2026-04-26 15:06 21.37442 -98.11460 35826 ft 427 kts 311°
2026-04-26 15:07 21.43468 -98.18529 35829 ft 427 kts 311°
2026-04-26 15:07 21.47480 -98.23241 35829 ft 427 kts 311°
2026-04-26 15:08 21.51491 -98.27954 35829 ft 427 kts 311°
2026-04-26 15:08 21.55498 -98.32668 35829 ft 427 kts 311°
2026-04-26 15:09 21.59482 -98.37358 35835 ft 427 kts 311°
2026-04-26 15:09 21.63476 -98.42065 35825 ft 425 kts 311°
2026-04-26 15:10 21.66812 -98.45999 35826 ft 424 kts 311°
2026-04-26 15:10 21.71438 -98.51461 35823 ft 424 kts 311°
2026-04-26 15:11 21.75393 -98.56133 35823 ft 424 kts 311°
2026-04-26 15:11 21.79370 -98.60837 35823 ft 424 kts 311°
2026-04-26 15:12 21.83347 -98.65544 35825 ft 424 kts 311°
2026-04-26 15:12 21.87325 -98.70257 35820 ft 424 kts 311°
2026-04-26 15:13 21.91268 -98.74933 35826 ft 424 kts 310°
2026-04-26 15:13 21.95221 -98.79623 35824 ft 421 kts 310°
2026-04-26 15:14 21.99155 -98.84297 35826 ft 421 kts 310°
2026-04-26 15:14 22.03095 -98.88983 35823 ft 421 kts 310°
2026-04-26 15:15 22.07043 -98.93681 35825 ft 422 kts 310°
2026-04-26 15:15 22.10952 -98.98336 35829 ft 421 kts 310°
2026-04-26 15:16 22.14884 -99.03024 35829 ft 421 kts 310°
2026-04-26 15:16 22.18819 -99.07719 35829 ft 421 kts 310°
2026-04-26 15:17 22.22083 -99.11617 35840 ft 420 kts 310°
2026-04-26 15:17 22.26635 -99.17057 35840 ft 419 kts 310°
2026-04-26 15:18 22.30533 -99.21722 35842 ft 418 kts 310°
2026-04-26 15:18 22.34429 -99.26387 35857 ft 418 kts 310°
2026-04-26 15:19 22.38331 -99.31064 35856 ft 418 kts 310°
2026-04-26 15:19 22.42223 -99.35734 35855 ft 418 kts 310°
2026-04-26 15:20 22.46118 -99.40411 35878 ft 418 kts 310°
2026-04-26 15:20 22.49991 -99.45066 35876 ft 418 kts 310°
2026-04-26 15:21 22.53886 -99.49750 35874 ft 417 kts 309°
2026-04-26 15:21 22.57765 -99.54420 35885 ft 417 kts 310°
2026-04-26 15:22 22.61644 -99.59094 35885 ft 417 kts 310°
2026-04-26 15:22 22.65527 -99.63775 35885 ft 417 kts 310°
2026-04-26 15:23 22.69403 -99.68455 35885 ft 418 kts 310°
2026-04-26 15:23 22.73266 -99.73123 35893 ft 418 kts 310°
2026-04-26 15:24 22.76515 -99.77054 35895 ft 418 kts 309°
2026-04-26 15:24 22.80397 -99.81752 35906 ft 418 kts 309°
2026-04-26 15:25 22.84245 -99.86413 35904 ft 417 kts 309°
2026-04-26 15:25 22.88117 -99.91109 35902 ft 417 kts 309°
2026-04-26 15:26 22.91991 -99.95812 35898 ft 417 kts 309°
2026-04-26 15:26 22.95858 -100.00511 35914 ft 417 kts 309°
2026-04-26 15:27 22.99721 -100.05210 35911 ft 417 kts 309°
2026-04-26 15:27 23.03586 -100.09914 35913 ft 417 kts 309°
2026-04-26 15:28 23.07447 -100.14618 35919 ft 417 kts 310°
2026-04-26 15:28 23.11279 -100.19289 35924 ft 416 kts 309°
2026-04-26 15:29 23.15129 -100.23989 35919 ft 416 kts 309°
2026-04-26 15:30 23.22814 -100.33385 35926 ft 415 kts 309°
2026-04-26 15:30 23.26655 -100.38087 35928 ft 416 kts 309°
2026-04-26 15:31 23.32394 -100.45122 35940 ft 415 kts 309°
2026-04-26 15:32 23.37505 -100.51393 35939 ft 416 kts 309°
2026-04-26 15:32 23.41993 -100.56906 35943 ft 415 kts 309°
2026-04-26 15:33 23.45794 -100.61582 35956 ft 415 kts 308°
2026-04-26 15:33 23.49630 -100.66303 35960 ft 416 kts 308°
2026-04-26 15:34 23.53468 -100.71031 35965 ft 416 kts 308°
2026-04-26 15:34 23.57297 -100.75753 35971 ft 416 kts 308°
2026-04-26 15:35 23.61101 -100.80452 35974 ft 416 kts 308°
2026-04-26 15:35 23.64937 -100.85195 35970 ft 416 kts 308°
2026-04-26 15:36 23.68767 -100.89937 35998 ft 416 kts 308°
2026-04-26 15:36 23.72586 -100.94666 35986 ft 414 kts 308°
2026-04-26 15:37 23.76396 -100.99389 35984 ft 414 kts 308°
2026-04-26 15:37 23.80200 -101.04109 35985 ft 414 kts 308°
2026-04-26 15:38 23.83980 -101.08805 35985 ft 414 kts 308°
2026-04-26 15:38 23.87789 -101.13542 35986 ft 414 kts 308°
2026-04-26 15:39 23.91593 -101.18275 35987 ft 414 kts 308°
2026-04-26 15:39 23.94752 -101.22210 35985 ft 414 kts 308°
2026-04-26 15:40 23.99169 -101.27716 35989 ft 414 kts 308°
2026-04-26 15:40 24.02965 -101.32453 35983 ft 413 kts 308°
2026-04-26 15:41 24.06755 -101.37189 35984 ft 414 kts 308°
2026-04-26 15:41 24.10544 -101.41927 35984 ft 414 kts 308°
2026-04-26 15:42 24.14337 -101.46676 35982 ft 414 kts 307°
2026-04-26 15:42 24.18007 -101.51519 35983 ft 412 kts 304°
2026-04-26 15:43 24.21465 -101.56527 35982 ft 412 kts 303°
2026-04-26 15:44 24.26589 -101.64041 35982 ft 412 kts 304°
2026-04-26 15:44 24.31775 -101.71566 35986 ft 412 kts 304°
2026-04-26 15:45 24.36976 -101.79103 35980 ft 413 kts 304°
2026-04-26 15:46 24.42167 -101.86639 35977 ft 413 kts 303°
2026-04-26 15:46 24.45046 -101.90825 35977 ft 413 kts 303°
2026-04-26 15:47 24.50816 -101.99224 35978 ft 413 kts 303°
2026-04-26 15:48 24.54249 -102.04229 35983 ft 413 kts 303°
2026-04-26 15:48 24.57702 -102.09266 35976 ft 412 kts 303°
2026-04-26 15:49 24.61144 -102.14296 35971 ft 412 kts 303°
2026-04-26 15:49 24.64585 -102.19329 35961 ft 411 kts 303°
2026-04-26 15:50 24.68029 -102.24367 35969 ft 412 kts 303°
2026-04-26 15:50 24.71469 -102.29407 35975 ft 412 kts 303°
2026-04-26 15:51 24.74889 -102.34422 35973 ft 412 kts 303°
2026-04-26 15:51 24.78324 -102.39466 35968 ft 412 kts 303°
2026-04-26 15:52 24.81756 -102.44509 35971 ft 412 kts 302°
2026-04-26 15:52 24.85184 -102.49553 35960 ft 411 kts 302°
2026-04-26 15:53 24.88606 -102.54592 35952 ft 411 kts 302°
2026-04-26 15:53 24.92025 -102.59633 35947 ft 410 kts 302°
2026-04-26 15:54 24.95443 -102.64678 35957 ft 411 kts 302°
2026-04-26 15:54 24.98863 -102.69732 35949 ft 411 kts 302°
2026-04-26 15:55 25.02258 -102.74755 35952 ft 411 kts 302°
2026-04-26 15:55 25.05673 -102.79810 35951 ft 411 kts 302°
2026-04-26 15:56 25.09089 -102.84874 35946 ft 412 kts 302°
2026-04-26 15:56 25.12505 -102.89941 35938 ft 411 kts 302°
2026-04-26 15:57 25.15917 -102.95008 35939 ft 411 kts 302°
2026-04-26 15:57 25.19323 -103.00074 35935 ft 411 kts 302°
2026-04-26 15:58 25.22727 -103.05141 35939 ft 410 kts 302°
2026-04-26 15:58 25.26129 -103.10212 35938 ft 410 kts 302°
2026-04-26 15:59 25.29508 -103.15252 35938 ft 411 kts 301°
2026-04-26 15:59 25.32912 -103.20336 35962 ft 411 kts 301°
2026-04-26 16:00 25.36314 -103.25420 35993 ft 411 kts 301°
2026-04-26 16:00 25.39707 -103.30496 36012 ft 410 kts 301°
2026-04-26 16:01 25.43093 -103.35569 36041 ft 410 kts 301°
2026-04-26 16:01 25.46476 -103.40645 36056 ft 409 kts 301°
2026-04-26 16:02 25.49859 -103.45725 36071 ft 410 kts 301°
2026-04-26 16:02 25.53213 -103.50764 36064 ft 409 kts 301°
2026-04-26 16:03 25.56599 -103.55859 36043 ft 411 kts 301°
2026-04-26 16:03 25.59987 -103.60962 36021 ft 411 kts 301°
2026-04-26 16:04 25.63382 -103.66079 35992 ft 411 kts 301°
2026-04-26 16:04 25.66739 -103.71144 35961 ft 410 kts 301°
2026-04-26 16:05 25.70117 -103.76250 35933 ft 410 kts 301°
2026-04-26 16:05 25.73484 -103.81345 35924 ft 409 kts 301°
2026-04-26 16:06 25.76853 -103.86448 35929 ft 410 kts 300°
2026-04-26 16:06 25.80224 -103.91562 35920 ft 411 kts 300°
2026-04-26 16:07 25.83606 -103.96695 35923 ft 411 kts 300°
2026-04-26 16:07 25.86983 -104.01825 35927 ft 411 kts 300°
2026-04-26 16:08 25.90335 -104.06924 35920 ft 411 kts 300°
2026-04-26 16:08 25.93705 -104.12055 35920 ft 411 kts 300°
2026-04-26 16:09 25.97079 -104.17198 35915 ft 410 kts 300°
2026-04-26 16:09 26.00445 -104.22336 35960 ft 411 kts 300°
2026-04-26 16:10 26.03772 -104.27417 35917 ft 407 kts 300°
2026-04-26 16:10 26.07096 -104.32500 35915 ft 406 kts 300°
2026-04-26 16:11 26.10416 -104.37586 35924 ft 406 kts 300°
2026-04-26 16:11 26.13737 -104.42679 35932 ft 406 kts 300°
2026-04-26 16:12 26.16495 -104.46910 35916 ft 406 kts 300°
2026-04-26 16:12 26.21464 -104.54545 35919 ft 406 kts 300°
2026-04-26 16:13 26.24776 -104.59642 35916 ft 406 kts 300°
2026-04-26 16:13 26.28062 -104.64703 35922 ft 405 kts 300°
2026-04-26 16:14 26.31366 -104.69798 35922 ft 405 kts 300°
2026-04-26 16:15 26.36317 -104.77445 35917 ft 405 kts 300°
2026-04-26 16:15 26.39620 -104.82551 35940 ft 405 kts 300°
2026-04-26 16:16 26.44556 -104.90195 35914 ft 405 kts 300°
2026-04-26 16:16 26.47849 -104.95302 35917 ft 405 kts 299°
2026-04-26 16:17 26.51128 -105.00393 35916 ft 406 kts 299°
2026-04-26 16:17 26.54424 -105.05515 35919 ft 406 kts 299°
2026-04-26 16:18 26.59367 -105.13209 35919 ft 406 kts 299°
2026-04-26 16:19 26.64308 -105.20912 35916 ft 406 kts 299°
2026-04-26 16:20 26.69221 -105.28584 35920 ft 406 kts 299°
2026-04-26 16:20 26.74144 -105.36284 35929 ft 405 kts 298°
2026-04-26 16:21 26.77415 -105.41410 35928 ft 405 kts 298°
2026-04-26 16:21 26.80684 -105.46538 35927 ft 405 kts 298°
2026-04-26 16:22 26.83932 -105.51638 35936 ft 405 kts 298°
2026-04-26 16:22 26.87196 -105.56769 35931 ft 404 kts 298°
2026-04-26 16:23 26.90461 -105.61907 35934 ft 404 kts 298°
2026-04-26 16:23 26.93720 -105.67042 35945 ft 404 kts 298°
2026-04-26 16:24 26.96980 -105.72185 35939 ft 404 kts 298°
2026-04-26 16:24 27.00214 -105.77290 35936 ft 403 kts 298°
2026-04-26 16:25 27.03463 -105.82425 35950 ft 403 kts 298°
2026-04-26 16:25 27.06706 -105.87557 35950 ft 403 kts 298°
2026-04-26 16:26 27.09946 -105.92695 35959 ft 403 kts 298°
2026-04-26 16:26 27.13188 -105.97840 35960 ft 403 kts 298°
2026-04-26 16:27 27.16416 -106.02968 35951 ft 405 kts 298°
2026-04-26 16:27 27.19681 -106.08161 35953 ft 407 kts 298°
2026-04-26 16:28 27.22946 -106.13355 35955 ft 407 kts 298°
2026-04-26 16:28 27.26214 -106.18567 35955 ft 407 kts 298°
2026-04-26 16:29 27.29476 -106.23772 35956 ft 407 kts 298°
2026-04-26 16:29 27.32722 -106.28957 35960 ft 408 kts 298°
2026-04-26 16:30 27.35984 -106.34175 35958 ft 408 kts 298°
2026-04-26 16:30 27.39251 -106.39409 35994 ft 410 kts 297°
2026-04-26 16:31 27.42533 -106.44673 35964 ft 411 kts 298°
2026-04-26 16:31 27.45819 -106.49948 35962 ft 411 kts 298°
2026-04-26 16:32 27.48551 -106.54337 35955 ft 411 kts 298°
2026-04-26 16:32 27.52394 -106.60514 35951 ft 411 kts 297°
2026-04-26 16:33 27.55653 -106.65766 35968 ft 412 kts 297°
2026-04-26 16:33 27.58929 -106.71053 35944 ft 411 kts 297°
2026-04-26 16:34 27.62226 -106.76382 35956 ft 415 kts 297°
2026-04-26 16:34 27.65536 -106.81739 35955 ft 416 kts 297°
2026-04-26 16:35 27.68855 -106.87106 35975 ft 416 kts 297°
2026-04-26 16:35 27.72169 -106.92479 35990 ft 418 kts 297°
2026-04-26 16:36 27.75464 -106.97822 35975 ft 417 kts 297°
2026-04-26 16:36 27.78769 -107.03189 35971 ft 416 kts 297°
2026-04-26 16:37 27.82067 -107.08556 35985 ft 416 kts 297°
2026-04-26 16:37 27.85375 -107.13949 35998 ft 418 kts 297°
2026-04-26 16:38 27.88691 -107.19356 36012 ft 417 kts 297°
2026-04-26 16:38 27.91970 -107.24709 36006 ft 416 kts 297°
2026-04-26 16:39 27.95265 -107.30096 35997 ft 416 kts 297°
2026-04-26 16:39 27.98565 -107.35496 36021 ft 416 kts 297°
2026-04-26 16:40 28.01838 -107.40860 36015 ft 416 kts 297°
2026-04-26 16:40 28.05133 -107.46271 36013 ft 417 kts 297°
2026-04-26 16:41 28.08422 -107.51678 36023 ft 417 kts 297°
2026-04-26 16:41 28.11711 -107.57085 36016 ft 416 kts 296°
2026-04-26 16:42 28.14993 -107.62492 36024 ft 416 kts 296°
2026-04-26 16:42 28.18268 -107.67901 36025 ft 416 kts 296°
2026-04-26 16:43 28.21544 -107.73315 36009 ft 416 kts 296°
2026-04-26 16:43 28.24814 -107.78725 36031 ft 416 kts 296°
2026-04-26 16:44 28.28058 -107.84101 36028 ft 415 kts 296°
2026-04-26 16:44 28.31319 -107.89509 36026 ft 416 kts 296°
2026-04-26 16:45 28.34579 -107.94925 36024 ft 416 kts 296°
2026-04-26 16:45 28.37832 -108.00325 36017 ft 413 kts 296°
2026-04-26 16:46 28.41072 -108.05718 36024 ft 413 kts 296°
2026-04-26 16:46 28.44306 -108.11113 36023 ft 413 kts 296°
2026-04-26 16:47 28.47525 -108.16488 36011 ft 413 kts 296°
2026-04-26 16:47 28.50760 -108.21895 36010 ft 413 kts 296°
2026-04-26 16:48 28.53996 -108.27317 36015 ft 414 kts 296°
2026-04-26 16:48 28.57230 -108.32729 36017 ft 414 kts 296°
2026-04-26 16:49 28.60463 -108.38146 36003 ft 413 kts 296°
2026-04-26 16:49 28.63668 -108.43529 36016 ft 413 kts 295°
2026-04-26 16:50 28.66894 -108.48955 36003 ft 414 kts 295°
2026-04-26 16:50 28.70116 -108.54393 35987 ft 414 kts 295°
2026-04-26 16:51 28.73332 -108.59833 36007 ft 413 kts 295°
2026-04-26 16:51 28.76554 -108.65297 35979 ft 414 kts 295°
2026-04-26 16:52 28.78688 -108.68916 36015 ft 413 kts 295°
2026-04-26 16:52 28.82939 -108.76138 35982 ft 411 kts 295°
2026-04-26 16:53 28.86121 -108.81555 35969 ft 410 kts 295°
2026-04-26 16:53 28.89278 -108.86929 35953 ft 410 kts 295°
2026-04-26 16:54 28.92455 -108.92345 35944 ft 410 kts 294°
2026-04-26 16:54 28.95622 -108.97754 35943 ft 409 kts 294°
2026-04-26 16:55 28.98788 -109.03167 35931 ft 410 kts 295°
2026-04-26 16:55 29.01941 -109.08568 35936 ft 410 kts 294°
2026-04-26 16:56 29.06677 -109.16686 35920 ft 409 kts 294°
2026-04-26 16:57 29.09829 -109.22101 35898 ft 409 kts 294°
2026-04-26 16:57 29.14564 -109.30249 35910 ft 409 kts 294°
2026-04-26 16:58 29.16652 -109.33847 35912 ft 409 kts 294°
2026-04-26 16:59 29.22410 -109.43785 35893 ft 409 kts 294°
2026-04-26 17:00 29.28693 -109.54652 35879 ft 409 kts 294°
2026-04-26 17:00 29.32870 -109.61894 35879 ft 409 kts 294°
2026-04-26 17:01 29.36003 -109.67333 35893 ft 409 kts 294°
2026-04-26 17:01 29.39137 -109.72783 35881 ft 409 kts 294°
2026-04-26 17:02 29.42265 -109.78228 35878 ft 409 kts 294°
2026-04-26 17:02 29.45378 -109.83654 35890 ft 408 kts 294°
2026-04-26 17:03 29.48490 -109.89089 35885 ft 407 kts 294°
2026-04-26 17:03 29.51601 -109.94525 35889 ft 407 kts 294°
2026-04-26 17:04 29.54707 -109.99960 35887 ft 407 kts 294°
2026-04-26 17:04 29.57796 -110.05372 35886 ft 408 kts 294°
2026-04-26 17:05 29.60903 -110.10824 35891 ft 408 kts 294°
2026-04-26 17:05 29.64009 -110.16283 35891 ft 407 kts 293°
2026-04-26 17:06 29.67105 -110.21727 35889 ft 406 kts 293°
2026-04-26 17:06 29.70193 -110.27167 35883 ft 405 kts 293°
2026-04-26 17:07 29.73272 -110.32600 35883 ft 405 kts 293°
2026-04-26 17:07 29.76353 -110.38048 35878 ft 406 kts 293°
2026-04-26 17:08 29.79416 -110.43467 35879 ft 406 kts 293°
2026-04-26 17:08 29.82499 -110.48926 35888 ft 406 kts 293°
2026-04-26 17:09 29.85055 -110.53454 35871 ft 405 kts 293°
2026-04-26 17:09 29.88637 -110.59817 35880 ft 404 kts 293°
2026-04-26 17:10 29.91696 -110.65260 35878 ft 404 kts 293°
2026-04-26 17:10 29.94731 -110.70666 35873 ft 404 kts 293°
2026-04-26 17:11 29.97783 -110.76109 35875 ft 404 kts 293°
2026-04-26 17:11 30.00836 -110.81561 35891 ft 404 kts 292°
2026-04-26 17:12 30.05410 -110.89742 35871 ft 404 kts 292°
2026-04-26 17:13 30.09975 -110.97924 35872 ft 403 kts 292°
2026-04-26 17:14 30.14531 -111.06069 35880 ft 402 kts 292°
2026-04-26 17:14 30.19081 -111.14184 35904 ft 402 kts 292°
2026-04-26 17:15 30.23639 -111.22331 35889 ft 402 kts 292°
2026-04-26 17:16 30.26671 -111.27761 35901 ft 402 kts 292°
2026-04-26 17:16 30.29699 -111.33194 35901 ft 401 kts 292°
2026-04-26 17:17 30.32718 -111.38615 35893 ft 400 kts 292°
2026-04-26 17:17 30.35714 -111.44003 35902 ft 400 kts 292°
2026-04-26 17:18 30.38730 -111.49436 35908 ft 400 kts 292°
2026-04-26 17:18 30.41738 -111.54862 35918 ft 400 kts 292°
2026-04-26 17:19 30.46238 -111.62991 35916 ft 400 kts 292°
2026-04-26 17:19 30.49221 -111.68389 35918 ft 400 kts 292°
2026-04-26 17:20 30.51712 -111.72900 35909 ft 398 kts 292°
2026-04-26 17:20 30.55202 -111.79231 35910 ft 398 kts 292°
2026-04-26 17:21 30.58187 -111.84658 35917 ft 399 kts 292°
2026-04-26 17:21 30.61169 -111.90086 35914 ft 399 kts 292°
2026-04-26 17:22 30.64140 -111.95499 35916 ft 399 kts 292°
2026-04-26 17:22 30.67121 -112.00936 35917 ft 399 kts 292°
2026-04-26 17:23 30.70100 -112.06376 35914 ft 398 kts 292°
2026-04-26 17:23 30.73067 -112.11803 35913 ft 398 kts 291°
2026-04-26 17:24 30.76036 -112.17244 35917 ft 397 kts 291°
2026-04-26 17:24 30.78993 -112.22670 35918 ft 397 kts 291°
2026-04-26 17:25 30.81949 -112.28100 35919 ft 397 kts 291°
2026-04-26 17:25 30.84900 -112.33530 35919 ft 397 kts 291°
2026-04-26 17:26 30.87835 -112.38936 35953 ft 397 kts 291°
2026-04-26 17:26 30.90785 -112.44379 35914 ft 396 kts 291°
2026-04-26 17:27 30.93713 -112.49786 35918 ft 396 kts 291°
2026-04-26 17:27 30.96653 -112.55229 35919 ft 397 kts 291°
2026-04-26 17:28 30.99596 -112.60679 35916 ft 397 kts 291°
2026-04-26 17:28 31.02539 -112.66137 35918 ft 396 kts 291°
2026-04-26 17:29 31.04978 -112.70665 35917 ft 397 kts 291°
2026-04-26 17:29 31.08386 -112.77005 35926 ft 396 kts 291°
2026-04-26 17:30 31.11312 -112.82455 35925 ft 395 kts 291°
2026-04-26 17:30 31.14231 -112.87899 35928 ft 395 kts 291°
2026-04-26 17:31 31.17143 -112.93339 35930 ft 395 kts 291°
2026-04-26 17:31 31.20055 -112.98789 35939 ft 395 kts 291°
2026-04-26 17:32 31.22942 -113.04197 35944 ft 395 kts 291°
2026-04-26 17:32 31.25848 -113.09648 35950 ft 395 kts 291°
2026-04-26 17:33 31.28754 -113.15106 35957 ft 395 kts 291°
2026-04-26 17:34 31.33109 -113.23303 35961 ft 395 kts 291°
2026-04-26 17:34 31.36009 -113.28770 35961 ft 395 kts 291°
2026-04-26 17:35 31.38963 -113.34166 35963 ft 397 kts 292°
2026-04-26 17:35 31.42011 -113.39565 35961 ft 397 kts 292°
2026-04-26 17:36 31.45068 -113.44973 35982 ft 397 kts 292°
2026-04-26 17:36 31.48109 -113.50378 35949 ft 397 kts 292°
2026-04-26 17:37 31.51140 -113.55788 35950 ft 397 kts 292°
2026-04-26 17:37 31.54163 -113.61195 35949 ft 396 kts 292°
2026-04-26 17:38 31.58680 -113.69287 35957 ft 396 kts 292°
2026-04-26 17:38 31.61700 -113.74707 35951 ft 396 kts 292°
2026-04-26 17:39 31.64717 -113.80129 35986 ft 397 kts 292°
2026-04-26 17:39 31.67731 -113.85550 35955 ft 396 kts 292°
2026-04-26 17:40 31.69743 -113.89175 35958 ft 396 kts 292°
2026-04-26 17:40 31.73745 -113.96395 35956 ft 396 kts 292°
2026-04-26 17:41 31.76743 -114.01813 35957 ft 396 kts 292°
2026-04-26 17:41 31.79725 -114.07209 35946 ft 396 kts 292°
2026-04-26 17:42 31.82729 -114.12654 36005 ft 396 kts 292°
2026-04-26 17:42 31.85729 -114.18098 35956 ft 396 kts 291°
2026-04-26 17:43 31.88729 -114.23549 35956 ft 397 kts 291°
2026-04-26 17:43 31.91724 -114.29000 35955 ft 396 kts 291°
2026-04-26 17:44 31.94702 -114.34426 35953 ft 397 kts 291°
2026-04-26 17:44 31.97697 -114.39892 35949 ft 396 kts 291°
2026-04-26 17:45 32.00682 -114.45349 35954 ft 396 kts 291°
2026-04-26 17:45 32.03666 -114.50810 35950 ft 395 kts 291°
2026-04-26 17:46 32.06625 -114.56232 35953 ft 395 kts 291°
2026-04-26 17:46 32.09593 -114.61679 35952 ft 395 kts 291°
2026-04-26 17:47 32.11577 -114.65327 35952 ft 395 kts 291°
2026-04-26 17:47 32.15521 -114.72586 35953 ft 395 kts 291°
2026-04-26 17:48 32.18488 -114.78056 35959 ft 395 kts 291°
2026-04-26 17:48 32.20948 -114.82596 35954 ft 394 kts 291°
2026-04-26 17:49 32.24379 -114.88937 35949 ft 394 kts 291°
2026-04-26 17:49 32.26829 -114.93473 35948 ft 394 kts 291°
2026-04-26 17:50 32.29773 -114.98931 35949 ft 394 kts 291°
2026-04-26 17:50 32.32717 -115.04398 35950 ft 394 kts 291°
2026-04-26 17:51 32.35662 -115.09873 35948 ft 395 kts 291°
2026-04-26 17:51 32.38616 -115.15368 35954 ft 395 kts 291°
2026-04-26 17:52 32.41549 -115.20830 35953 ft 396 kts 291°
2026-04-26 17:52 32.44500 -115.26337 35955 ft 396 kts 291°
2026-04-26 17:53 32.47447 -115.31841 35941 ft 396 kts 291°
2026-04-26 17:54 32.51864 -115.40111 35941 ft 395 kts 291°
2026-04-26 17:54 32.54804 -115.45625 35983 ft 396 kts 291°
2026-04-26 17:55 32.57724 -115.51110 35945 ft 396 kts 291°
2026-04-26 17:55 32.60661 -115.56634 35955 ft 396 kts 291°
2026-04-26 17:56 32.63597 -115.62165 35964 ft 396 kts 291°
2026-04-26 17:57 32.69442 -115.73198 35972 ft 393 kts 291°
2026-04-26 17:57 32.72344 -115.78697 35989 ft 393 kts 291°
2026-04-26 17:58 32.78163 -115.89750 35976 ft 397 kts 291°
2026-04-26 17:59 32.82557 -115.98103 35980 ft 397 kts 291°
2026-04-26 17:59 32.85482 -116.03678 35978 ft 397 kts 291°
2026-04-26 18:00 32.88406 -116.09260 35979 ft 397 kts 291°
2026-04-26 18:00 32.91325 -116.14845 35982 ft 398 kts 291°
2026-04-26 18:01 32.94237 -116.20423 35979 ft 399 kts 292°
2026-04-26 18:01 32.97170 -116.26044 35946 ft 399 kts 291°
2026-04-26 18:02 32.99609 -116.30727 35977 ft 400 kts 292°
2026-04-26 18:02 33.03037 -116.37319 35971 ft 400 kts 292°
2026-04-26 18:03 33.05966 -116.42960 35980 ft 400 kts 292°
2026-04-26 18:03 33.08896 -116.48612 35974 ft 400 kts 292°
2026-04-26 18:04 33.11805 -116.54234 35984 ft 400 kts 292°
2026-04-26 18:05 33.17061 -116.62212 35989 ft 417 kts 303°
2026-04-26 18:05 33.21149 -116.67188 35998 ft 420 kts 304°
2026-04-26 18:06 33.25293 -116.72114 35993 ft 420 kts 304°
2026-04-26 18:06 33.29431 -116.77053 35992 ft 421 kts 304°
2026-04-26 18:07 33.33568 -116.82026 35999 ft 421 kts 304°
2026-04-26 18:07 33.37668 -116.86971 35989 ft 420 kts 304°
2026-04-26 18:08 33.41780 -116.91938 36040 ft 419 kts 304°
2026-04-26 18:08 33.45897 -116.96922 36000 ft 421 kts 304°
2026-04-26 18:09 33.50019 -117.01920 36012 ft 423 kts 304°
2026-04-26 18:09 33.54158 -117.06939 36014 ft 422 kts 304°
2026-04-26 18:10 33.58268 -117.11929 36019 ft 422 kts 304°
2026-04-26 18:10 33.62398 -117.16954 36022 ft 423 kts 304°
2026-04-26 18:11 33.66530 -117.21990 35975 ft 423 kts 304°
2026-04-26 18:11 33.70661 -117.27031 35976 ft 423 kts 304°
2026-04-26 18:12 33.74787 -117.32072 35977 ft 423 kts 304°
2026-04-26 18:12 33.78920 -117.37129 36027 ft 423 kts 305°
2026-04-26 18:13 33.83046 -117.42188 36032 ft 425 kts 305°
2026-04-26 18:13 33.87183 -117.47267 36032 ft 425 kts 305°
2026-04-26 18:14 33.91303 -117.52329 36051 ft 426 kts 305°
2026-04-26 18:14 33.95544 -117.57353 36035 ft 428 kts 307°
2026-04-26 18:15 33.99853 -117.62328 36038 ft 430 kts 307°
2026-04-26 18:15 34.04175 -117.67323 36025 ft 431 kts 307°
2026-04-26 18:16 34.08502 -117.72347 36017 ft 431 kts 307°
2026-04-26 18:16 34.14944 -117.79860 36056 ft 431 kts 307°
2026-04-26 18:17 34.19259 -117.84906 36028 ft 433 kts 308°
2026-04-26 18:17 34.23591 -117.89978 36017 ft 434 kts 308°
2026-04-26 18:18 34.27928 -117.95060 35999 ft 434 kts 308°
2026-04-26 18:18 34.32240 -118.00121 35988 ft 434 kts 308°
2026-04-26 18:19 34.36577 -118.05226 35973 ft 436 kts 308°
2026-04-26 18:19 34.40929 -118.10349 35955 ft 437 kts 308°
2026-04-26 18:20 34.45293 -118.15491 35967 ft 437 kts 308°
2026-04-26 18:20 34.48201 -118.18922 35958 ft 436 kts 308°